Flag for Switzerland Weather past 2 weeks in Stans, Nidwalden, Switzerland

Now
31 °F

Chilly.


Feels Like: 31 °F
Forecast: 21 / 39 °F
Wind: No wind

Location: Giswil

Current Time: Jan 27, 2015 at 9:05:13 PM

Latest Report: Jan 27, 2015 at 8:00 PM


Visibility: N/A

Pressure: 30.32 "Hg

Humidity: 100%

Dew point: 31 °F

Location of StansLocation

Historic Weather in Stans — Graph

°F

Stans temperature yesterday

Maximum temperature yesterday: 33 °F (at 5:00 PM)
Minimum temperature yesterday: 17 °F (at 5:00 AM)
Average temperature yesterday: 27 °F

Past Weeks' High & Low Weather Summary

 TemperatureHumidityPressure
High48 °F (Jan 14, 5:00 PM)100% (Jan 12, 7:00 PM)30.50 "Hg (Jan 12, 7:00 PM)
Low17 °F (Jan 26, 5:00 AM)45% (Jan 15, 3:00 PM)29.70 "Hg (Jan 16, 4:00 PM)
Average33 °F93%30.09 "Hg
* Reported Jan 12 7:00 PM — Jan 27 7:00 PM, Stans, Weather by CustomWeather, © 2014

Note: Actual official high and low records may vary slightly from our data, if they occured in-between our weather recording intervals... More about our weather records

Advertising

Stans weather history for previous 24 hours

 ConditionsComfort  
Time TempWeatherWind HumidityBarometerVisibility
7:00 PM
Jan 27
32 °FChilly.1 mph100%30.32 "HgN/A
6:00 PM32 °FChilly.2 mph100%30.31 "HgN/A
5:00 PM34 °FChilly.2 mph100%30.29 "HgN/A
4:00 PM34 °FChilly.2 mph100%30.29 "HgN/A
3:00 PM35 °FChilly.1 mph100%30.28 "HgN/A
2:00 PM35 °FChilly.1 mph100%30.29 "HgN/A
1:00 PM35 °FChilly.1 mph100%30.30 "HgN/A
12:00 PM34 °FChilly.No wind100%30.31 "HgN/A
11:00 AM33 °FChilly.No wind100%30.31 "HgN/A
10:00 AM33 °FChilly.1 mph100%30.30 "HgN/A
9:00 AM33 °FChilly.1 mph100%30.30 "HgN/A
8:00 AM32 °FChilly.1 mph100%30.29 "HgN/A
7:00 AM32 °FChilly.1 mph100%30.27 "HgN/A
6:00 AM33 °FChilly.1 mph100%30.26 "HgN/A
5:00 AM32 °FChilly.1 mph100%30.25 "HgN/A
4:00 AM32 °FChilly.1 mph100%30.24 "HgN/A
3:00 AM32 °FChilly.No wind100%30.25 "HgN/A
2:00 AM32 °FChilly.1 mph100%30.26 "HgN/A
1:00 AM32 °FChilly.No wind100%30.24 "HgN/A
12:00 AM32 °FChilly.1 mph100%30.25 "HgN/A
11:00 PM
Jan 26
32 °FChilly.1 mph100%30.27 "HgN/A
9:00 PM32 °FChilly.1 mph100%30.27 "HgN/A
Weather by CustomWeather, © 2014

See weather overviewHow to use our weather pages